TimeAKDT,TemperatureF,Dew PointF,Humidity,Sea Level PressureIn,VisibilityMPH,Wind Direction,Wind SpeedMPH,Gust SpeedMPH,PrecipitationIn,Events,Conditions,WindDirDegrees,DateUTC
12:53 AM,37.0,30.0,76,30.14,10.0,South,3.5,-,N/A,,Mostly Cloudy,170,2012-10-05 08:53:00
1:53 AM,39.0,30.9,73,30.14,10.0,Calm,Calm,-,N/A,,Mostly Cloudy,0,2012-10-05 09:53:00
2:53 AM,37.0,30.0,76,30.17,10.0,Calm,Calm,-,N/A,,Mostly Cloudy,0,2012-10-05 10:53:00
3:53 AM,34.0,28.9,82,30.18,10.0,Calm,Calm,-,N/A,,Mostly Cloudy,0,2012-10-05 11:53:00
4:53 AM,32.0,28.0,85,30.19,10.0,ESE,3.5,-,N/A,,Mostly Cloudy,120,2012-10-05 12:53:00
5:53 AM,30.9,28.9,92,30.20,10.0,Calm,Calm,-,N/A,,Mostly Cloudy,0,2012-10-05 13:53:00
6:53 AM,30.0,28.0,92,30.21,10.0,Calm,Calm,-,N/A,,Mostly Cloudy,0,2012-10-05 14:53:00
7:53 AM,28.9,28.0,96,30.23,10.0,Calm,Calm,-,N/A,,Mostly Cloudy,0,2012-10-05 15:53:00
8:53 AM,30.9,28.9,92,30.24,10.0,Calm,Calm,-,N/A,,Mostly Cloudy,0,2012-10-05 16:53:00
9:53 AM,36.0,30.9,82,30.24,10.0,NE,3.5,-,N/A,,Mostly Cloudy,50,2012-10-05 17:53:00
10:53 AM,41.0,32.0,70,30.22,10.0,SSE,3.5,-,N/A,,Mostly Cloudy,150,2012-10-05 18:53:00
11:53 AM,50.0,35.1,57,30.20,10.0,Calm,Calm,-,N/A,,Mostly Cloudy,0,2012-10-05 19:53:00
12:53 PM,53.1,36.0,52,30.20,10.0,Calm,Calm,-,N/A,,Mostly Cloudy,0,2012-10-05 20:53:00
1:53 PM,54.0,36.0,51,30.18,10.0,Calm,Calm,-,N/A,,Mostly Cloudy,0,2012-10-05 21:53:00
2:53 PM,55.9,37.0,49,30.17,10.0,Calm,Calm,-,N/A,,Mostly Cloudy,0,2012-10-05 22:53:00
3:53 PM,57.0,37.9,49,30.15,10.0,North,3.5,-,N/A,,Mostly Cloudy,350,2012-10-05 23:53:00
4:53 PM,55.0,37.9,53,30.11,10.0,NNW,4.6,-,N/A,,Mostly Cloudy,330,2012-10-06 00:53:00
5:53 PM,53.1,39.0,59,30.10,10.0,NNW,4.6,-,N/A,,Mostly Cloudy,330,2012-10-06 01:53:00
6:53 PM,48.0,39.0,71,30.10,10.0,NW,5.8,-,N/A,,Mostly Cloudy,310,2012-10-06 02:53:00
7:53 PM,46.9,37.9,71,30.09,10.0,WNW,4.6,-,N/A,,Scattered Clouds,300,2012-10-06 03:53:00
8:53 PM,45.0,37.9,76,30.08,10.0,Calm,Calm,-,N/A,,Scattered Clouds,0,2012-10-06 04:53:00
9:53 PM,39.0,36.0,89,30.09,10.0,Calm,Calm,-,N/A,,Partly Cloudy,0,2012-10-06 05:53:00
10:53 PM,36.0,33.1,89,30.10,10.0,Calm,Calm,-,N/A,,Scattered Clouds,0,2012-10-06 06:53:00
11:53 PM,34.0,32.0,92,30.09,10.0,Calm,Calm,-,N/A,,Scattered Clouds,0,2012-10-06 07:53:00